{"data":{"norad_id":53058,"intl_designator":"2022-077R","name":"STARLINK-4317","alt_names":[],"object_type":"PAYLOAD","status":"ACTIVE","operator":null,"country":"US","launch_date":"2022-07-11","launch_site_code":"AFWTR","launch_vehicle":null,"mission":null,"orbit_class":"UNKNOWN","rcs_meters":null,"size_class":null,"mass_kg":null,"dimensions":null,"purposes":["comms"],"wikipedia_slug":null,"has_3d_model":false,"image_url":null,"decayed_at":null,"tle_current":{"epoch":"2026-09-19T17:54:38.212704Z","epoch_age_seconds":134582,"freshness":"FRESH","line1":"1 53058U 22077R   26262.74627561 -.00000036  00000+0  12137-5 0  9993","line2":"2 53058  97.2852  77.5551 0001688  88.9283 271.2153 15.33435805230189","mean_motion":15.33435805,"eccentricity":0.0001688,"inclination_deg":97.2852,"raan_deg":77.5551,"arg_perigee_deg":88.9283,"mean_anomaly_deg":271.2153,"bstar":1.2137e-6,"rev_number":23018,"period_min":93.906767750216,"perigee_km":464.41531463413,"apogee_km":466.72575029708,"semimajor_km":6843.7075324656,"source":"CELESTRAK","updated_at":"2026-09-20T09:00:40.152881Z"}}}